GW4074 Weather Reports


Display with metric or nautical units.
time (UTC)temp
F
wind
direction
speed
MPH
gust
MPH
rain 1hr
in
rain 24hr
in
rain mn
in
humidity
%
barometer
mb
20260903102803 52 184 5.0 6.0 0.00 0.00 0.00 99 1005.6
20260903102258 52 153 5.0 12.0 0.00 0.00 0.00 99 1005.7
20260903101756 52 142 5.0 10.0 0.00 0.00 0.00 99 1005.9
20260903101252 52 125 7.0 9.0 0.00 0.00 0.00 99 1005.9
20260903100747 52 138 3.0 8.0 0.00 0.00 0.00 99 1005.8
20260903100242 52 98 3.0 8.0 0.00 0.00 0.00 99 1005.9
20260903095739 52 175 2.0 9.0 0.00 0.00 0.00 99 1005.9
20260903095234 52 181 5.0 7.0 0.00 0.00 0.00 99 1005.8
20260903094729 52 177 5.0 7.0 0.00 0.00 0.00 99 1005.7
20260903094224 52 111 3.0 8.0 0.00 0.00 0.00 99 1005.9
20260903093720 52 76 1.0 5.0 0.00 0.00 0.00 99 1005.9
20260903093215 52 109 1.0 4.0 0.00 0.00 0.00 99 1005.9
20260903092714 52 201 2.0 4.0 0.00 0.00 0.00 99 1005.9
20260903092209 52 352 3.0 3.0 0.00 0.00 0.00 99 1006.0
20260903091708 52 123 4.0 4.0 0.00 0.00 0.00 99 1006.0
20260903091203 52 226 1.0 3.0 0.00 0.00 0.00 98 1005.9
20260903090658 52 153 2.0 4.0 0.00 0.00 0.00 98 1005.9
20260903090157 52 19 0.0 2.0 0.00 0.00 0.00 99 1005.8
20260903085656 52 145 2.0 4.0 0.00 0.00 0.00 98 1005.8
20260903085152 52 285 1.0 4.0 0.00 0.00 0.00 98 1006.0
20260903084649 52 133 0.0 4.0 0.00 0.00 0.00 97 1005.9
20260903084148 52 105 2.0 4.0 0.00 0.00 0.00 97 1006.0
20260903083645 52 194 1.0 3.0 0.00 0.00 0.00 98 1006.1
20260903083145 52 108 3.0 5.0 0.00 0.00 0.00 97 1005.9
20260903082639 52 119 3.0 4.0 0.00 0.00 0.00 98 1005.9
20260903082135 52 88 2.0 3.0 0.00 0.00 0.00 98 1005.9
20260903081630 52 112 2.0 3.0 0.00 0.00 0.00 98 1005.9
20260903081126 52 80 2.0 2.0 0.00 0.00 0.00 98 1005.7
20260903080622 52 159 4.0 5.0 0.00 0.00 0.00 98 1005.8
20260903080119 52 76 2.0 4.0 0.00 0.00 0.00 98 1005.6
20260903075613 52 94 2.0 4.0 0.00 0.00 0.00 98 1005.8
20260903075108 52 113 2.0 3.0 0.00 0.00 0.00 98 1005.7
20260903074607 52 126 4.0 4.0 0.00 0.00 0.00 98 1005.8
20260903074102 52 144 3.0 4.0 0.00 0.00 0.00 98 1005.7
20260903073558 52 102 2.0 4.0 0.00 0.00 0.00 98 1005.5
20260903073054 52 101 1.0 2.0 0.00 0.00 0.00 98 1005.6
20260903072549 53 107 2.0 2.0 0.00 0.00 0.00 98 1005.6
20260903072045 52 129 2.0 3.0 0.00 0.00 0.00 98 1005.5
20260903071541 52 110 3.0 6.0 0.00 0.00 0.00 98 1005.6
20260903071036 52 145 2.0 2.0 0.00 0.00 0.00 98 1005.5
20260903070536 52 22 0.0 4.0 0.00 0.00 0.00 98 1005.5
20260903070032 52 96 1.0 4.0 0.00 0.12 0.12 97 1005.6
20260903065525 52 129 2.0 2.0 0.00 0.12 0.12 97 1005.5
20260903065025 52 166 0.0 2.0 0.00 0.12 0.12 96 1005.5
20260903064525 52 122 3.0 4.0 0.00 0.12 0.12 96 1005.7
20260903064020 53 129 4.0 4.0 0.00 0.12 0.12 96 1005.5
20260903063515 53 127 5.0 11.0 0.00 0.12 0.12 96 1005.6
20260903063011 52 132 6.0 6.0 0.00 0.12 0.12 96 1005.6
20260903062506 52 92 1.0 3.0 0.00 0.12 0.12 95 1005.3
20260903062002 52 60 0.0 3.0 0.00 0.12 0.12 94 1005.4
20260903061502 52 95 1.0 7.0 0.00 0.12 0.12 96 1005.4
20260903060957 51 103 2.0 3.0 0.00 0.12 0.12 95 1005.5
20260903060457 51 107 3.0 5.0 0.00 0.12 0.12 95 1005.4
20260903055956 51 137 3.0 4.0 0.00 0.12 0.12 93 1005.4
20260903055454 51 57 3.0 3.0 0.00 0.12 0.12 91 1005.3
20260903054949 52 110 6.0 11.0 0.00 0.12 0.12 89 1005.3
20260903054448 52 93 2.0 3.0 0.00 0.12 0.12 89 1005.3
20260903053945 52 98 2.0 3.0 0.00 0.12 0.12 87 1005.4
20260903053444 52 130 6.0 8.0 0.00 0.12 0.12 87 1005.2
20260903052941 52 19 0.0 6.0 0.00 0.12 0.12 90 1005.3
20260903052437 51 133 2.0 9.0 0.00 0.12 0.12 91 1005.4
20260903051932 50 221 2.0 6.0 0.00 0.12 0.12 93 1005.3
20260903051427 49 68 3.0 4.0 0.00 0.12 0.12 98 1005.2
20260903050918 48 159 1.0 2.0 0.00 0.12 0.12 99 1005.3
20260903050416 49 63 0.0 2.0 0.00 0.12 0.12 99 1005.2
20260903045911 49 49 0.0 2.0 0.00 0.12 0.12 99 1005.1
20260903045407 49 78 2.0 2.0 0.00 0.12 0.12 99 1005.1
20260903044903 49 8 3.0 3.0 0.00 0.12 0.12 98 1005.2
20260903044357 50 85 0.0 2.0 0.00 0.12 0.12 98 1005.0
20260903043854 50 126 1.0 2.0 0.00 0.12 0.12 98 1005.1
20260903043349 50 212 0.0 4.0 0.00 0.12 0.12 96 1004.8
20260903042848 50 101 1.0 2.0 0.00 0.12 0.12 98 1004.7
20260903042343 50 8 2.0 2.0 0.00 0.12 0.12 98 1004.8
20260903041839 51 103 1.0 3.0 0.00 0.12 0.12 94 1004.6
20260903041335 52 157 2.0 4.0 0.00 0.12 0.12 92 1004.5
20260903040831 51 128 2.0 3.0 0.00 0.12 0.12 93 1004.7
20260903040330 51 113 0.0 2.0 0.00 0.12 0.12 95 1004.5
20260903035826 52 27 2.0 3.0 0.00 0.12 0.12 94 1004.6
20260903035321 52 72 3.0 5.0 0.00 0.12 0.12 94 1004.4
20260903034816 52 107 3.0 5.0 0.00 0.12 0.12 91 1004.4
20260903034311 53 112 3.0 4.0 0.00 0.12 0.12 90 1004.1
20260903033807 52 128 2.0 2.0 0.00 0.12 0.12 92 1004.0
20260903033302 52 103 2.0 2.0 0.00 0.12 0.12 96 1004.0
20260903032800 52 81 3.0 8.0 0.00 0.12 0.12 92 1003.9
20260903032257 52 260 2.0 6.0 0.00 0.12 0.12 95 1003.8
20260903031752 52 145 2.0 3.0 0.00 0.12 0.12 99 1003.8
20260903031251 52 353 4.0 4.0 0.00 0.12 0.12 99 1003.7
20260903030748 52 23 4.0 4.0 0.00 0.12 0.12 99 1003.6
20260903030243 53 135 0.0 3.0 0.00 0.12 0.12 99 1003.4
20260903025738 53 113 2.0 3.0 0.00 0.12 0.12 99 1003.3
20260903025234 53 16 2.0 4.0 0.00 0.12 0.12 99 1003.2
20260903024729 53 80 2.0 2.0 0.00 0.12 0.12 98 1003.2
20260903024228 53 182 3.0 13.0 0.00 0.12 0.12 99 1003.1
20260903023724 53 355 1.0 5.0 0.00 0.12 0.12 99 1002.9
20260903023219 53 81 0.0 3.0 0.00 0.12 0.12 99 1002.6
20260903022719 53 55 2.0 4.0 0.00 0.12 0.12 99 1002.6
20260903022218 53 116 5.0 5.0 0.00 0.12 0.12 99 1002.4
20260903021712 54 193 2.0 5.0 0.00 0.12 0.12 99 1002.5
20260903021207 54 15 2.0 3.0 0.00 0.12 0.12 99 1002.6
20260903020702 53 104 2.0 5.0 0.00 0.12 0.12 99 1002.5
20260903020157 54 165 3.0 4.0 0.00 0.12 0.12 99 1002.5
20260903015652 54 139 2.0 3.0 0.00 0.12 0.12 99 1002.4
20260903015148 54 328 4.0 4.0 0.00 0.12 0.12 99 1002.4
20260903014648 54 149 4.0 9.0 0.00 0.12 0.12 99 1002.1
20260903014142 54 119 7.0 11.0 0.00 0.12 0.12 99 1002.3
20260903013637 54 73 2.0 2.0 0.00 0.12 0.12 99 1002.5
20260903013136 54 92 1.0 4.0 0.00 0.12 0.12 99 1002.6
20260903012635 54 3 0.0 4.0 0.00 0.12 0.12 99 1002.2
20260903012134 54 38 3.0 4.0 0.00 0.12 0.12 99 1002.3
20260903011634 55 118 6.0 6.0 0.00 0.12 0.12 99 1002.2
20260903011128 54 248 4.0 6.0 0.00 0.12 0.12 99 1002.1
20260903010624 55 125 3.0 6.0 0.00 0.12 0.12 99 1001.8
20260903010122 54 108 2.0 8.0 0.00 0.12 0.12 99 1001.9
20260903005617 54 78 4.0 10.0 0.00 0.12 0.12 99 1001.5
20260903005113 54 119 3.0 13.0 0.00 0.12 0.12 99 1001.4
20260903004608 54 170 3.0 11.0 0.00 0.12 0.12 99 1001.0
20260903004103 54 130 10.0 14.0 0.00 0.12 0.12 99 1001.2
20260903003558 54 119 6.0 11.0 0.02 0.12 0.12 99 1001.2
20260903003054 54 94 4.0 14.0 0.00 0.11 0.11 99 1001.1
20260903002548 54 129 6.0 14.0 0.02 0.11 0.11 99 1001.4
20260903002043 54 126 4.0 9.0 0.07 0.11 0.11 99 1001.2
20260903001537 54 123 5.0 11.0 0.07 0.11 0.11 99 1001.2
20260903001031 54 160 6.0 14.0 0.05 0.10 0.10 99 1001.6
20260903000527 54 142 7.0 10.0 0.05 0.09 0.09 99 1001.7
20260903000025 54 143 3.0 9.0 0.07 0.09 0.09 99 1001.7
20260902235520 54 160 6.0 14.0 0.05 0.08 0.08 99 1001.8
20260902235014 54 165 6.0 18.0 0.05 0.08 0.08 99 1001.6
20260902234509 54 127 4.0 11.0 0.02 0.07 0.07 99 1002.1
20260902234008 54 124 9.0 15.0 0.00 0.07 0.07 99 1001.9
20260902233502 54 100 3.0 13.0 0.05 0.07 0.07 99 1001.9
20260902232956 54 138 5.0 11.0 0.05 0.07 0.07 99 1001.9
20260902232451 54 125 5.0 15.0 0.05 0.06 0.06 99 1001.6
20260902231950 54 143 5.0 14.0 0.05 0.06 0.06 99 1001.8
20260902231445 53 126 5.0 13.0 0.02 0.06 0.06 99 1001.9
20260902230940 53 136 9.0 13.0 0.02 0.05 0.05 99 1001.8
20260902230439 54 159 11.0 14.0 0.05 0.05 0.05 99 1001.9
20260902225933 54 147 6.0 11.0 0.05 0.05 0.05 99 1001.9
20260902225429 53 140 9.0 15.0 0.05 0.04 0.04 99 1001.9
20260902224927 53 167 10.0 17.0 0.05 0.04 0.04 99 1001.9
20260902224421 53 143 8.0 13.0 0.07 0.04 0.04 98 1001.8
20260902223918 53 132 7.0 14.0 0.07 0.03 0.03 98 1001.9
20260902223413 54 144 6.0 17.0 0.07 0.02 0.02 97 1001.8
20260902222908 54 128 6.0 16.0 0.07 0.02 0.02 97 1001.7
20260902222406 54 150 9.0 14.0 0.07 0.01 0.01 96 1001.6
20260902221905 55 125 6.0 13.0 0.02 0.00 0.00 95 1001.9
20260902221404 55 130 6.0 13.0 0.00 0.00 0.00 94 1002.0
20260902220900 56 147 5.0 14.0 0.00 0.00 0.00 92 1001.9
20260902220400 56 134 6.0 11.0 0.00 0.00 0.00 92 1001.7
20260902215855 57 136 7.0 14.0 0.00 0.00 0.00 90 1001.6
20260902215351 57 136 7.0 13.0 0.00 0.00 0.00 87 1001.5
20260902214846 59 106 8.0 12.0 0.00 0.00 0.00 83 1001.5
20260902214345 59 124 5.0 14.0 0.00 0.00 0.00 80 1001.4
20260902213840 59 151 6.0 16.0 0.00 0.00 0.00 79 1001.4
20260902213336 59 164 6.0 13.0 0.00 0.00 0.00 82 1001.8
20260902212834 59 170 7.0 21.0 0.00 0.00 0.00 80 1001.5
20260902212331 60 135 8.0 13.0 0.00 0.00 0.00 77 1001.6
20260902211827 62 136 4.0 15.0 0.00 0.00 0.00 74 1001.5
20260902211322 62 136 6.0 11.0 0.00 0.00 0.00 73 1001.3
20260902210817 62 165 5.0 15.0 0.00 0.00 0.00 72 1001.8
20260902210312 63 137 6.0 9.0 0.00 0.00 0.00 74 1001.8
20260902205810 62 169 10.0 12.0 0.00 0.00 0.00 74 1002.0
20260902205306 62 131 6.0 11.0 0.00 0.00 0.00 74 1002.2
20260902204800 63 169 2.0 9.0 0.00 0.00 0.00 74 1002.1
20260902204255 63 134 4.0 10.0 0.00 0.00 0.00 74 1002.2
20260902203750 63 129 5.0 7.0 0.00 0.00 0.00 75 1002.2
20260902203245 63 162 5.0 9.0 0.00 0.00 0.00 75 1002.3
20260902202740 63 128 3.0 10.0 0.00 0.00 0.00 75 1002.3
20260902202236 63 134 6.0 13.0 0.00 0.00 0.00 77 1002.5
20260902201733 63 136 3.0 11.0 0.00 0.00 0.00 77 1002.6
20260902201232 63 123 3.0 12.0 0.00 0.00 0.00 77 1002.5
20260902200727 63 113 3.0 15.0 0.00 0.00 0.00 76 1002.8
20260902200223 62 170 6.0 10.0 0.00 0.00 0.00 76 1002.9
20260902195718 63 157 9.0 14.0 0.00 0.00 0.00 75 1002.7
20260902195217 63 133 4.0 11.0 0.00 0.00 0.00 74 1002.8
20260902194717 63 145 3.0 8.0 0.00 0.00 0.00 75 1002.9
20260902194212 63 156 4.0 12.0 0.00 0.00 0.00 74 1003.2
20260902193708 63 136 6.0 11.0 0.00 0.00 0.00 75 1002.8
20260902193203 63 108 5.0 8.0 0.00 0.00 0.00 76 1002.7
20260902192701 63 130 3.0 10.0 0.00 0.00 0.00 76 1002.9
20260902192200 63 136 4.0 9.0 0.00 0.00 0.00 75 1003.2
20260902191655 63 141 6.0 12.0 0.00 0.00 0.00 76 1002.9
20260902191149 62 124 5.0 11.0 0.00 0.00 0.00 77 1002.8
20260902190645 62 154 5.0 12.0 0.00 0.00 0.00 77 1003.3
20260902190140 63 138 4.0 13.0 0.00 0.00 0.00 77 1002.9
20260902185636 63 139 4.0 10.0 0.00 0.00 0.00 77 1002.8
20260902185131 62 167 7.0 10.0 0.00 0.00 0.00 76 1003.1
20260902184626 62 139 4.0 9.0 0.00 0.00 0.00 78 1002.9
20260902184122 61 176 6.0 14.0 0.00 0.00 0.00 79 1003.2
20260902183618 61 176 8.0 12.0 0.00 0.00 0.00 79 1003.4
20260902183114 60 169 6.0 9.0 0.00 0.00 0.00 81 1003.4
20260902182610 60 165 6.0 12.0 0.00 0.00 0.00 81 1003.4
20260902182106 60 165 6.0 12.0 0.00 0.00 0.00 81 1003.3
20260902181602 60 146 6.0 9.0 0.00 0.00 0.00 81 1003.4
20260902181101 60 126 4.0 11.0 0.00 0.00 0.00 82 1003.4
20260902180601 60 173 6.0 11.0 0.00 0.00 0.00 82 1003.3
20260902180057 60 157 10.0 12.0 0.00 0.00 0.00 82 1003.4
20260902175556 60 114 3.0 15.0 0.00 0.00 0.00 82 1003.7
20260902175052 59 102 7.0 13.0 0.00 0.00 0.00 82 1003.8
20260902174548 59 120 6.0 12.0 0.00 0.00 0.00 82 1003.8
20260902174044 59 79 1.0 8.0 0.00 0.00 0.00 82 1004.0
20260902173544 59 82 6.0 8.0 0.00 0.00 0.00 82 1004.1
20260902173039 59 149 3.0 8.0 0.00 0.00 0.00 82 1004.4
20260902172533 59 116 6.0 9.0 0.00 0.00 0.00 82 1004.1
20260902172028 59 123 5.0 16.0 0.00 0.00 0.00 83 1004.3
20260902171524 59 155 4.0 8.0 0.00 0.00 0.00 84 1004.5
20260902171019 58 145 3.0 11.0 0.00 0.00 0.00 85 1004.3
20260902170514 58 130 4.0 10.0 0.00 0.00 0.00 85 1004.5
20260902170010 58 59 5.0 9.0 0.00 0.00 0.00 85 1004.3
20260902165509 58 125 4.0 9.0 0.00 0.00 0.00 85 1004.5
20260902165004 58 134 5.0 7.0 0.00 0.00 0.00 86 1004.3
20260902164459 58 114 7.0 9.0 0.00 0.00 0.00 86 1004.3
20260902163957 58 125 4.0 9.0 0.00 0.00 0.00 85 1004.4
20260902163453 58 144 5.0 11.0 0.00 0.00 0.00 86 1004.4
20260902162951 58 128 4.0 8.0 0.00 0.00 0.00 87 1004.4
20260902162446 58 107 2.0 6.0 0.00 0.00 0.00 87 1004.4
20260902161946 58 148 3.0 13.0 0.00 0.00 0.00 87 1004.4
20260902161441 58 132 3.0 8.0 0.00 0.00 0.00 87 1004.7
20260902160937 59 162 3.0 6.0 0.00 0.00 0.00 87 1004.7
20260902160432 59 124 5.0 8.0 0.00 0.00 0.00 86 1004.6
20260902155931 59 140 2.0 6.0 0.00 0.00 0.00 87 1004.6
20260902155426 58 177 5.0 7.0 0.00 0.00 0.00 88 1004.8
20260902154920 59 39 0.0 5.0 0.00 0.00 0.00 88 1005.0
20260902154416 58 150 4.0 7.0 0.00 0.00 0.00 89 1004.8
20260902153915 58 170 5.0 8.0 0.00 0.00 0.00 88 1004.7
20260902153414 58 143 3.0 7.0 0.00 0.00 0.00 89 1004.6
20260902152909 58 106 4.0 7.0 0.00 0.00 0.00 89 1004.7
20260902152406 58 108 6.0 10.0 0.00 0.00 0.00 88 1004.8
20260902151901 58 123 5.0 10.0 0.00 0.00 0.00 89 1004.6
20260902151356 57 139 3.0 14.0 0.00 0.00 0.00 91 1004.7
20260902150850 57 177 2.0 16.0 0.00 0.00 0.00 91 1004.8
20260902150347 57 91 2.0 5.0 0.00 0.00 0.00 92 1004.9
20260902145847 56 172 1.0 6.0 0.00 0.00 0.00 92 1005.1
20260902145342 56 117 2.0 5.0 0.00 0.00 0.00 93 1005.2
20260902144837 56 100 4.0 4.0 0.00 0.00 0.00 94 1005.2
20260902144333 56 164 4.0 5.0 0.00 0.00 0.00 94 1005.4
20260902143828 55 159 4.0 6.0 0.00 0.00 0.00 94 1005.3
20260902143327 55 105 4.0 4.0 0.00 0.00 0.00 95 1005.4
20260902142824 55 92 5.0 5.0 0.00 0.00 0.00 96 1005.5
20260902142320 55 38 1.0 4.0 0.00 0.00 0.00 96 1005.3
20260902141814 55 185 3.0 5.0 0.00 0.00 0.00 96 1005.4
20260902141310 55 38 0.0 3.0 0.00 0.00 0.00 96 1005.3
20260902140809 55 141 2.0 5.0 0.00 0.00 0.00 96 1005.4
20260902140305 55 103 2.0 4.0 0.00 0.00 0.00 96 1005.4
20260902135804 55 176 4.0 5.0 0.00 0.00 0.00 96 1005.6
20260902135300 55 116 2.0 7.0 0.00 0.00 0.00 96 1005.3
20260902134759 55 166 5.0 5.0 0.00 0.00 0.00 96 1005.3
20260902134255 54 120 3.0 6.0 0.00 0.00 0.00 97 1005.4
20260902133750 54 162 2.0 12.0 0.00 0.00 0.00 97 1005.4
20260902133249 55 127 4.0 7.0 0.00 0.00 0.00 97 1005.4
20260902132744 55 158 5.0 9.0 0.00 0.00 0.00 97 1005.5
20260902132240 54 160 5.0 11.0 0.00 0.00 0.00 97 1005.4
20260902131736 54 86 2.0 5.0 0.00 0.00 0.00 97 1005.5
20260902131232 54 12 2.0 4.0 0.00 0.00 0.00 97 1005.4
20260902130731 54 98 3.0 6.0 0.00 0.00 0.00 97 1005.4
20260902130227 54 18 4.0 5.0 0.00 0.00 0.00 97 1005.3
20260902125722 54 108 3.0 6.0 0.00 0.00 0.00 96 1005.4
20260902125214 54 68 0.0 2.0 0.00 0.00 0.00 96 1005.5
20260902124710 54 121 2.0 6.0 0.00 0.00 0.00 96 1005.5
20260902124209 55 175 0.0 9.0 0.00 0.00 0.00 95 1005.7
20260902123704 54 279 0.0 3.0 0.00 0.00 0.00 95 1005.6
20260902123201 55 145 2.0 5.0 0.00 0.00 0.00 94 1005.5
20260902122659 55 168 2.0 4.0 0.00 0.00 0.00 94 1005.7
20260902122156 55 348 4.0 6.0 0.00 0.00 0.00 94 1005.8
20260902121650 55 352 3.0 6.0 0.00 0.00 0.00 93 1005.7
20260902121144 55 0 1.0 4.0 0.00 0.00 0.00 92 1005.8
20260902120641 55 39 4.0 4.0 0.00 0.00 0.00 92 1005.7
20260902120137 55 135 3.0 3.0 0.00 0.00 0.00 92 1006.0
20260902115631 55 18 0.0 2.0 0.00 0.00 0.00 91 1005.9
20260902115127 55 87 4.0 8.0 0.00 0.00 0.00 90 1006.0
20260902114623 56 80 2.0 6.0 0.00 0.00 0.00 90 1005.8
20260902114123 56 52 2.0 4.0 0.00 0.00 0.00 90 1006.2
20260902113613 55 192 1.0 2.0 0.00 0.00 0.00 91 1006.0
20260902113108 55 36 1.0 4.0 0.00 0.00 0.00 90 1006.3
20260902112604 55 28 2.0 5.0 0.00 0.00 0.00 90 1006.3
20260902112100 55 307 0.0 3.0 0.00 0.00 0.00 89 1006.5
20260902111556 56 335 2.0 2.0 0.00 0.00 0.00 89 1006.6
20260902111051 57 29 4.0 5.0 0.00 0.00 0.00 87 1006.5
20260902110547 57 128 3.0 7.0 0.00 0.00 0.00 86 1006.5
20260902110043 57 148 4.0 8.0 0.00 0.00 0.00 86 1006.5
20260902105538 57 109 2.0 8.0 0.00 0.00 0.00 87 1006.2
20260902105037 56 138 4.0 8.0 0.00 0.00 0.00 87 1006.5
20260902104533 56 107 3.0 9.0 0.00 0.00 0.00 88 1006.5
20260902104032 55 265 2.0 3.0 0.00 0.00 0.00 89 1006.5
20260902103529 56 326 1.0 3.0 0.00 0.00 0.00 90 1006.3